[[{"header":{"parameterUnit":"m.s-1","parameterCategory":1,"la1":30.2991,"la2":30.254,"lo1":-89.0895,"lo2":-89.0444,"dy":0.0017,"dx":0.0017,"nx":28,"ny":28,"refTime":"2024-03-22T03:00:00:Z","depth":0,"parameterNumber":2,"parameterNumberName":"U-component_of_WINDS"},"data":[0,0,0,0,0,0,0,0,0,0,0,0,0,0,0,0,0,0,0,0,0,0,0,0,0,0,0,0,0,0,0,0,0,0,0,0,0,0,0,0,0,0,0,0,0,0,0,0,0,0,0,0,0,0,0,0,0,0,-5.7595,-5.7596,0,-5.7699,-5.77,-5.7701,-5.7641,-5.7638,-5.7635,-5.7632,-5.7736,-5.7742,-5.7747,0,0,0,0,0,0,0,0,0,0,0,0,0,-5.7343,-5.7348,-5.7595,-5.7596,-5.7598,-5.7699,-5.77,-5.7702,-5.7641,-5.7638,-5.7634,-5.7631,-5.7735,-5.7741,-5.7748,0,0,0,0,0,0,0,0,0,0,0,0,0,-5.745,-5.7349,-5.7595,-5.758,-5.7579,-5.7699,-5.77,-5.7702,-5.7642,-5.7638,-5.7633,-5.7629,-5.7732,-5.774,-5.7749,-5.7888,0,0,-5.7774,-5.7777,0,0,0,0,0,0,0,0,-5.7444,-5.7459,-5.7581,-5.7581,-5.7581,-5.7652,-5.7649,-5.7764,-5.7643,-5.7618,-5.7632,-5.7627,-5.7712,-5.7722,-5.7751,-5.7893,-5.7897,-5.7775,-5.778,-5.7783,-5.7786,0,0,0,0,0,0,0,-5.7437,-5.7454,-5.7636,-5.7583,-5.7583,-5.7567,-5.7578,-5.7671,-5.7688,-5.762,-5.7616,-5.7629,-5.7711,-5.7743,-5.7753,-5.7899,-5.7774,-5.7782,-5.7787,-5.779,-5.8159,-5.8164,0,0,0,0,0,0,-5.7431,-5.7449,-5.7633,-5.7639,-5.75,-5.7575,-5.7587,-5.7634,-5.7687,-5.7691,-5.7633,-5.7626,-5.7731,-5.7743,-5.7756,-5.7921,-5.7783,-5.7791,-5.7796,-5.8154,-5.816,-5.8165,0,0,0,0,0,0,-5.7425,-5.7448,-5.7629,-5.7543,-5.7565,-5.7584,-5.7638,-5.7638,-5.767,-5.7697,-5.7699,-5.7662,-5.7728,-5.7744,-5.7855,-5.7924,-5.7795,-5.7802,-5.8148,-5.8156,-5.8163,-5.8253,0,0,0,0,0,0,-5.7418,-5.7446,-5.7499,-5.7545,-5.757,-5.7727,-5.7642,-5.7643,-5.7685,-5.7677,-5.7725,-5.7729,-5.7726,-5.7843,-5.7864,-5.7933,-5.7809,-5.8142,-5.8152,-5.816,-5.8244,-5.8262,-5.8278,0,0,0,0,0,-5.741,-5.752,-5.7502,-5.7525,-5.7637,-5.7731,-5.7745,-5.774,-5.769,-5.7744,-5.7761,-5.7727,-5.7914,-5.7855,-5.7878,-5.795,-5.8138,-5.8149,-5.816,-5.8236,-5.8259,-5.8278,0,0,0,0,0,0,-5.7481,-5.7526,-5.7506,-5.7635,-5.768,-5.772,-5.7787,-5.7764,-5.7823,-5.7813,-5.7803,-5.7815,-5.793,-5.7952,-5.7886,-5.8087,-5.8018,-5.8034,-5.8068,-5.809,-5.8107,-5.8098,-5.7815,0,0,0,0,0,-5.7513,-5.7586,-5.7621,-5.7731,-5.7754,-5.7768,-5.7808,-5.7801,-5.7846,-5.7864,-5.789,-5.7935,-5.8003,-5.8048,-5.8113,-5.8248,-5.8256,-5.8309,-5.8326,-5.834,-5.8353,-5.8424,-5.8447,-5.8201,-5.8201,-5.8201,0,0,-5.7577,-5.761,-5.7657,-5.7746,-5.778,-5.7855,-5.7784,-5.7866,-5.7922,-5.7877,-5.7982,-5.8003,-5.8053,-5.8176,-5.8231,-5.8197,-5.8424,-5.8354,-5.8365,-5.837,-5.8438,-5.8461,-5.8482,-5.8208,-5.8207,-5.8206,0,0,-5.7732,-5.7766,-5.7861,-5.7896,-5.7948,-5.7956,-5.798,-5.8024,-5.8036,-5.8143,-5.811,-5.8176,-5.8295,-5.8331,-5.8365,-5.8536,-5.8507,-5.8558,-5.8646,-5.8716,-5.8735,-5.8752,-5.8811,-5.8833,-5.8571,-5.8571,-5.8572,0,-5.7805,-5.7918,-5.7912,-5.7997,-5.8037,-5.8002,-5.8097,-5.8132,-5.8202,-5.823,-5.8192,-5.834,-5.8371,-5.8501,-5.8543,-5.8572,-5.8597,-5.855,-5.8733,-5.875,-5.8766,-5.8822,-5.8845,-5.8577,-5.8576,-5.8576,-5.8575,0,-5.8004,-5.8083,-5.8153,-5.8222,-5.827,-5.8361,-5.8368,-5.8417,-5.8407,-5.8419,-5.8527,-5.8564,-5.8635,-5.8666,-5.8656,-5.8795,-5.8772,-5.8734,-5.8664,-5.8795,-5.8848,-5.8869,-5.8585,-5.8583,-5.8581,-5.858,0,0,-5.8204,-5.8271,-5.8296,-5.8327,-5.8383,-5.8443,-5.8532,-5.8602,-5.8644,-5.8695,-5.8767,-5.887,-5.8835,-5.8874,-5.8868,-5.893,-5.906,-5.8884,-5.8884,-5.8913,-5.9214,-5.924,-5.9265,-5.9043,-5.9047,-5.905,-5.9209,0,-5.8361,-5.8515,-5.8514,-5.8657,-5.8728,-5.8697,-5.8774,-5.8816,-5.883,-5.8893,-5.8909,-5.8981,-5.893,-5.8953,-5.9014,-5.9032,-5.912,-5.9021,-5.9108,-5.9112,-5.9094,-5.9293,-5.9321,-5.9469,-5.923,-5.9233,-5.9236,0,-5.8563,-5.8621,-5.8771,-5.8816,-5.8846,-5.8916,-5.898,-5.9041,-5.9088,-5.9094,-5.9139,-5.9123,-5.9213,-5.9143,-5.9265,-5.9197,-5.9234,-5.9248,-5.9254,-5.9259,-5.9179,-5.9301,-5.9517,-5.9538,-5.9269,-5.9266,-5.9264,0,-5.8691,-5.8807,-5.8911,-5.8939,-5.8995,-5.9044,-5.907,-5.9113,-5.9155,-5.9212,-5.9239,-5.9305,-5.9341,-5.9392,-5.9395,-5.9344,-5.9518,-5.9448,-5.9524,-5.9524,-5.9559,-5.9557,-5.9781,-5.9588,-5.9588,-5.9587,-5.9587,0,-5.8865,-5.8957,-5.8969,-5.9033,-5.9136,-5.9134,-5.9235,-5.9256,-5.9296,-5.9363,-5.934,-5.9403,-5.9405,-5.9469,-5.9473,-5.9572,-5.9589,-5.9596,-5.9595,-5.9596,-5.9595,-5.9617,-5.9606,-5.9593,-5.9592,-5.9591,-5.959,0,-5.9023,-5.9036,-5.9147,-5.9192,-5.9205,-5.9279,-5.9316,-5.9377,-5.939,-5.9475,-5.9495,-5.9516,-5.9591,-5.9599,-5.9687,-5.9689,-5.9809,-5.9798,-5.9792,-5.979,-5.9864,-5.9856,-6.0109,-6.0141,-5.9929,-5.9931,-5.9933,0,-5.9131,-5.9202,-5.9254,-5.9298,-5.9326,-5.9397,-5.944,-5.9441,-5.9487,-5.9547,-5.9601,-5.9674,-5.9732,-5.9853,-5.9875,-5.9942,-5.9932,-6.0016,-5.9941,-5.994,-5.993,-5.9925,-5.9931,-6.0029,-6.0031,-6.0033,-6.0035,0,-5.9321,-5.9324,-5.9388,-5.9454,-5.9507,-5.9559,-5.9607,-5.9644,-5.9652,-5.9705,-5.9781,-5.9827,-5.9917,-5.9989,-6.0055,-6.0081,-6.0059,-6.0059,-6.0079,-6.0079,-6.0072,-6.0075,-5.9829,-6.0052,-6.005,-6.0049,-6.0048,-6.0047,-5.9456,-5.9517,-5.9563,-5.9635,-5.9672,-5.9719,-5.9778,-5.9799,-5.9863,-5.9936,-5.9934,-6.0018,-6.0064,-6.015,-6.0181,-6.0247,-6.0219,-6.0249,-6.0257,-6.0263,-6.027,-6.0065,-6.0259,-6.0259,-6.0258,-6.0258,-6.0258,0,-5.9643,-5.9672,-5.9738,-5.9807,-5.9863,-5.984,-5.9893,-5.9941,-6.0016,-6.0061,-6.0119,-6.0207,-6.0278,-6.0307,-6.0375,-6.0422,-6.0414,-6.044,-6.0435,-6.0441,-6.0292,-6.0266,-6.0446,-6.0446,-6.0446,-6.0446,-6.0445,-6.0445,-5.9746,-5.9847,-5.9856,-5.9975,-6.0003,-6.0086,-6.0118,-6.0161,-6.0197,-6.0296,-6.0355,-6.0374,-6.0412,-6.0484,-6.0547,-6.0554,-6.0579,-6.061,-6.0612,-6.0471,-6.0452,-6.0433,-6.0409,-6.0616,-6.0616,-6.0755,-6.0756,-6.0757]},{"header":{"parameterUnit":"m.s-1","parameterCategory":1,"la1":30.2991,"la2":30.254,"lo1":-89.0895,"lo2":-89.0444,"dy":0.0017,"dx":0.0017,"nx":28,"ny":28,"refTime":"2024-03-22T03:00:00:Z","depth":0,"parameterNumber":3,"parameterNumberName":"V-component_of_WINDS"},"data":[0,0,0,0,0,0,0,0,0,0,0,0,0,0,0,0,0,0,0,0,0,0,0,0,0,0,0,0,0,0,0,0,0,0,0,0,0,0,0,0,0,0,0,0,0,0,0,0,0,0,0,0,0,0,0,0,0,0,5.0214,5.0215,0,5.0348,5.035,5.0351,5.0311,5.0308,5.0305,5.0303,5.0436,5.0442,5.0448,0,0,0,0,0,0,0,0,0,0,0,0,0,4.9918,4.9923,5.0214,5.0215,5.0217,5.0348,5.035,5.0352,5.0311,5.0308,5.0305,5.0301,5.0434,5.0441,5.0448,0,0,0,0,0,0,0,0,0,0,0,0,0,5.0048,4.9925,5.0213,5.0213,5.0214,5.0348,5.035,5.0352,5.0312,5.0308,5.0304,5.03,5.0431,5.044,5.0449,5.059,0,0,5.0478,5.0482,0,0,0,0,0,0,0,0,5.0041,5.0059,5.0211,5.0213,5.0215,5.0309,5.0294,5.0432,5.0313,5.0275,5.0303,5.0298,5.0397,5.0408,5.0443,5.0596,5.0602,5.0478,5.0484,5.0488,5.0491,0,0,0,0,0,0,0,5.0032,5.0053,5.0267,5.0213,5.0216,5.0204,5.0218,5.032,5.0357,5.0278,5.0275,5.0292,5.0397,5.0434,5.0445,5.0604,5.0478,5.0486,5.0492,5.0496,5.088,5.0885,0,0,0,0,0,0,5.0022,5.0046,5.0262,5.0271,5.0116,5.0213,5.0229,5.0283,5.0356,5.0363,5.0295,5.029,5.042,5.0435,5.045,5.062,5.0488,5.0497,5.0502,5.0876,5.0881,5.0886,0,0,0,0,0,0,5.0016,5.0042,5.0257,5.0158,5.0184,5.0223,5.0283,5.0287,5.0325,5.037,5.0375,5.0327,5.0417,5.0437,5.0556,5.0624,5.0501,5.0509,5.087,5.0877,5.0884,5.096,0,0,0,0,0,0,5.0008,5.004,5.0095,5.0159,5.019,5.0362,5.0288,5.0293,5.0341,5.0335,5.0401,5.0407,5.0416,5.0543,5.0565,5.0634,5.0516,5.0864,5.0873,5.0882,5.0952,5.0969,5.0984,0,0,0,0,0,4.9997,5.011,5.0098,5.0124,5.0259,5.0366,5.0383,5.0392,5.0347,5.0402,5.0431,5.0405,5.0613,5.0555,5.058,5.0653,5.086,5.0871,5.0881,5.0945,5.0966,5.0983,0,0,0,0,0,0,5.005,5.0118,5.0106,5.0243,5.0299,5.0359,5.0428,5.0414,5.0483,5.0474,5.048,5.0495,5.0617,5.0647,5.0581,5.0793,5.073,5.0746,5.0769,5.079,5.0805,5.0795,5.0524,0,0,0,0,0,5.0078,5.0161,5.0215,5.0331,5.036,5.039,5.0436,5.0438,5.0496,5.052,5.0557,5.0613,5.0691,5.0742,5.0816,5.0956,5.0969,5.1019,5.1035,5.1047,5.1061,5.1137,5.1159,5.0921,5.0921,5.0921,0,0,5.0136,5.0183,5.0235,5.0342,5.0386,5.0471,5.041,5.0501,5.0563,5.0533,5.0648,5.0678,5.0741,5.0871,5.093,5.0899,5.113,5.1061,5.1071,5.1077,5.115,5.1173,5.1193,5.0928,5.0927,5.0926,0,0,5.0284,5.0329,5.043,5.0476,5.0544,5.0564,5.0588,5.0651,5.067,5.0786,5.0765,5.0838,5.0972,5.1018,5.1059,5.1227,5.1206,5.125,5.1333,5.1408,5.1426,5.1443,5.1502,5.1524,5.1264,5.1264,5.1264,0,5.0347,5.0474,5.0483,5.0578,5.0625,5.0604,5.0706,5.0749,5.0838,5.087,5.0835,5.1004,5.1045,5.1185,5.1227,5.126,5.1288,5.1242,5.1423,5.144,5.1456,5.1512,5.1535,5.1269,5.1269,5.1268,5.1268,0,5.0548,5.0637,5.071,5.0798,5.0854,5.0951,5.0974,5.103,5.1027,5.105,5.1168,5.1217,5.1301,5.1334,5.1332,5.1475,5.1454,5.1421,5.1357,5.1483,5.1536,5.1558,5.1276,5.1274,5.1273,5.1272,0,0,5.0732,5.0825,5.0852,5.0891,5.0966,5.1034,5.113,5.1214,5.1261,5.1323,5.1403,5.1518,5.1489,5.1535,5.1538,5.1603,5.1732,5.1562,5.1564,5.1592,5.1893,5.1916,5.1941,5.1719,5.1724,5.1727,5.1887,0,5.0886,5.1057,5.1069,5.1223,5.1305,5.1286,5.137,5.1424,5.1448,5.152,5.1545,5.1627,5.1582,5.161,5.1674,5.1703,5.1793,5.1692,5.1793,5.1796,5.1777,5.1969,5.1995,5.2143,5.1908,5.1912,5.1914,0,5.1088,5.1159,5.1321,5.1385,5.142,5.1495,5.1573,5.1642,5.1703,5.1716,5.1769,5.1763,5.186,5.1794,5.1928,5.186,5.1902,5.1922,5.1928,5.1937,5.1862,5.1983,5.2191,5.2213,5.1947,5.1944,5.1942,0,5.1206,5.1341,5.1456,5.149,5.1568,5.1621,5.1655,5.1712,5.1762,5.183,5.1862,5.194,5.1982,5.2042,5.2057,5.2007,5.2191,5.2125,5.2203,5.2203,5.2242,5.2239,5.2459,5.227,5.227,5.227,5.2269,0,5.1376,5.1476,5.151,5.158,5.1692,5.1704,5.1814,5.1844,5.1896,5.1971,5.1959,5.203,5.2046,5.2119,5.2131,5.2241,5.226,5.2272,5.2274,5.2273,5.2271,5.23,5.229,5.2276,5.2274,5.2273,5.2272,0,5.1526,5.1552,5.1676,5.174,5.1758,5.1838,5.1891,5.1959,5.1982,5.2078,5.2101,5.2136,5.2223,5.2244,5.2346,5.2354,5.2483,5.2475,5.2463,5.2462,5.2539,5.2531,5.2785,5.2818,5.2608,5.261,5.2611,0,5.1632,5.1709,5.1782,5.1833,5.187,5.1952,5.2003,5.2018,5.2072,5.2147,5.2206,5.2291,5.236,5.2498,5.2532,5.261,5.2604,5.2687,5.2615,5.2612,5.2605,5.26,5.2607,5.2701,5.2703,5.2705,5.2706,0,5.1819,5.1829,5.1904,5.1985,5.2047,5.2111,5.2172,5.2213,5.2237,5.2297,5.2387,5.244,5.2546,5.263,5.2709,5.2743,5.2729,5.2729,5.2751,5.275,5.274,5.2746,5.25,5.2723,5.2721,5.272,5.2719,5.2718,5.195,5.2018,5.208,5.2165,5.2213,5.227,5.2337,5.2369,5.2444,5.2532,5.2536,5.2633,5.2692,5.2797,5.2835,5.291,5.2885,5.2917,5.2925,5.2932,5.2939,5.2729,5.2925,5.2924,5.2924,5.2924,5.2923,0,5.2136,5.2176,5.2253,5.234,5.2406,5.2389,5.2456,5.2512,5.2598,5.2655,5.2724,5.2826,5.2908,5.295,5.3031,5.3083,5.3079,5.3104,5.31,5.3108,5.2957,5.293,5.3106,5.3106,5.3106,5.3106,5.3106,5.3106,5.224,5.2354,5.2372,5.2509,5.2547,5.2643,5.2683,5.2736,5.2781,5.2897,5.2966,5.2993,5.3044,5.3129,5.3203,5.3213,5.3243,5.3272,5.3279,5.3137,5.3118,5.3101,5.3075,5.3279,5.3279,5.3423,5.3424,5.3425]}]]